User: anonymous   Login
Location: Unspecified
(0.0000°N, 0.0000°E)
Time: 19:10:10
(UTC+00:00)
Language:

TBA - TO BE ASSIGNED - Orbit

View from above orbital plane
View from above orbital plane
View from above satellite
View from above satellite

Ground track
Ground track

The orbit is defined by the following mean orbital elements,

1 68615U          26145.58335647 +.00000000 +00000-0 -36124-1 0 00006
2 68615  97.2845 345.1626 0001921  97.4196 206.5472 15.59621368    01
Epoch (UTC): 25 May 2026 14:00:01
Eccentricity: 0.0001921
inclination: 97.2845°
perigee height: 387 km
apogee height: 390 km
right ascension of ascending node: 345.1626°
argument of perigee: 97.4196°
revolutions per day: 15.59621368
mean anomaly at epoch: 206.5472°

The dashed part of the orbit path shows where the satellite is in the earth's shadow,  

DLR